TimeCST,TemperatureF,Dew PointF,Humidity,Sea Level PressureIn,VisibilityMPH,Wind Direction,Wind SpeedMPH,Gust SpeedMPH,PrecipitationIn,Events,Conditions,WindDirDegrees,DateUTC
12:15 AM,31.8,27.9,85,30.10,10.0,North,6.9,-,N/A,,Overcast,10,2013-01-16 06:15:00
12:35 AM,31.6,28.0,87,30.09,10.0,North,3.5,-,N/A,,Overcast,10,2013-01-16 06:35:00
12:55 AM,32.0,27.9,85,30.09,10.0,North,6.9,-,N/A,,Overcast,10,2013-01-16 06:55:00
1:15 AM,32.0,28.2,86,30.11,10.0,North,5.8,-,N/A,,Overcast,10,2013-01-16 07:15:00
1:35 AM,32.0,28.2,86,30.11,10.0,North,5.8,-,N/A,,Overcast,10,2013-01-16 07:35:00
1:55 AM,32.0,28.2,86,30.10,7.0,North,5.8,-,N/A,,Overcast,10,2013-01-16 07:55:00
2:15 AM,32.0,28.2,86,30.11,10.0,North,6.9,-,N/A,,Overcast,10,2013-01-16 08:15:00
2:35 AM,32.0,28.2,86,30.10,7.0,North,5.8,-,N/A,,Overcast,10,2013-01-16 08:35:00
2:55 AM,31.8,28.2,87,30.10,10.0,North,5.8,-,N/A,,Overcast,10,2013-01-16 08:55:00
3:35 AM,31.8,28.0,86,30.10,10.0,North,4.6,-,N/A,,Overcast,10,2013-01-16 09:35:00
3:55 AM,31.8,28.2,87,30.10,10.0,North,5.8,-,N/A,,Overcast,10,2013-01-16 09:55:00
4:15 AM,31.6,27.9,86,30.07,10.0,North,8.1,-,N/A,,Overcast,10,2013-01-16 10:15:00
4:35 AM,31.5,27.9,87,30.07,10.0,North,6.9,-,N/A,,Overcast,10,2013-01-16 10:35:00
4:55 AM,31.6,28.0,87,30.08,10.0,North,10.4,-,N/A,,Overcast,10,2013-01-16 10:55:00
5:15 AM,31.5,27.5,85,30.07,10.0,North,9.2,-,N/A,,Overcast,10,2013-01-16 11:15:00
5:35 AM,31.6,27.9,86,30.08,10.0,North,8.1,-,N/A,,Overcast,10,2013-01-16 11:35:00
5:55 AM,31.6,27.7,85,30.08,10.0,North,8.1,-,N/A,,Overcast,10,2013-01-16 11:55:00
6:15 AM,31.6,27.5,85,30.10,10.0,North,5.8,-,N/A,,Overcast,10,2013-01-16 12:15:00
6:35 AM,31.6,27.5,85,30.11,10.0,North,5.8,-,N/A,,Overcast,10,2013-01-16 12:35:00
6:55 AM,31.8,27.5,84,30.13,10.0,North,6.9,-,N/A,,Overcast,360,2013-01-16 12:55:00
7:15 AM,32.0,28.0,85,30.13,7.0,North,5.8,-,N/A,,Overcast,360,2013-01-16 13:15:00
7:35 AM,31.8,28.2,87,30.12,10.0,North,9.2,-,N/A,,Overcast,360,2013-01-16 13:35:00
7:55 AM,31.8,27.9,85,30.13,10.0,WNW,8.1,-,N/A,,Overcast,290,2013-01-16 13:55:00
8:15 AM,31.6,27.5,85,30.13,10.0,WNW,6.9,-,N/A,,Scattered Clouds,290,2013-01-16 14:15:00
8:35 AM,31.8,27.5,84,30.13,7.0,West,9.2,-,N/A,,Clear,280,2013-01-16 14:35:00
8:55 AM,32.0,27.1,82,30.13,7.0,WNW,6.9,-,N/A,,Clear,290,2013-01-16 14:55:00
9:15 AM,32.0,27.0,82,30.13,7.0,West,8.1,-,N/A,,Clear,280,2013-01-16 15:15:00
9:35 AM,32.0,27.0,82,30.12,10.0,WNW,6.9,-,N/A,,Clear,290,2013-01-16 15:35:00
9:55 AM,32.0,27.1,82,30.13,10.0,WNW,6.9,-,N/A,,Clear,290,2013-01-16 15:55:00
10:15 AM,32.2,26.6,80,30.14,7.0,West,8.1,-,N/A,,Clear,280,2013-01-16 16:15:00
10:35 AM,32.5,26.4,78,30.14,10.0,West,5.8,-,N/A,,Clear,280,2013-01-16 16:35:00
10:55 AM,32.7,25.9,76,30.14,7.0,WSW,3.5,-,N/A,,Clear,250,2013-01-16 16:55:00
11:15 AM,32.9,26.2,76,30.12,7.0,WNW,6.9,-,N/A,,Clear,300,2013-01-16 17:15:00
11:35 AM,32.9,25.5,74,30.10,10.0,WNW,3.5,-,N/A,,Clear,300,2013-01-16 17:35:00
11:55 AM,33.4,26.2,75,30.10,10.0,West,3.5,-,N/A,,Clear,260,2013-01-16 17:55:00
12:15 PM,33.6,25.0,71,30.10,7.0,West,4.6,-,N/A,,Clear,270,2013-01-16 18:15:00
12:35 PM,34.2,25.3,70,30.08,10.0,WNW,5.8,-,N/A,,Clear,290,2013-01-16 18:35:00
12:55 PM,34.5,24.3,66,30.07,10.0,WNW,4.6,-,N/A,,Clear,290,2013-01-16 18:55:00
1:15 PM,34.9,25.7,69,30.07,7.0,SW,3.5,-,N/A,,Clear,220,2013-01-16 19:15:00
1:35 PM,35.1,24.6,66,30.06,7.0,SW,4.6,-,N/A,,Clear,230,2013-01-16 19:35:00
1:55 PM,35.4,24.8,65,30.06,10.0,SW,5.8,-,N/A,,Clear,220,2013-01-16 19:55:00
2:15 PM,35.6,25.7,67,30.07,7.0,SW,4.6,-,N/A,,Clear,220,2013-01-16 20:15:00
2:35 PM,35.6,26.4,69,30.07,10.0,SSW,6.9,-,N/A,,Clear,210,2013-01-16 20:35:00
3:15 PM,35.2,26.2,70,30.08,10.0,South,5.8,-,N/A,,Clear,190,2013-01-16 21:15:00
3:35 PM,34.7,27.7,76,30.09,10.0,South,10.4,-,N/A,,Clear,180,2013-01-16 21:35:00
3:55 PM,34.2,29.7,84,30.10,7.0,South,10.4,-,N/A,,Clear,180,2013-01-16 21:55:00
4:15 PM,33.8,28.8,82,30.10,7.0,South,6.9,-,N/A,,Clear,190,2013-01-16 22:15:00
4:35 PM,34.2,27.0,75,30.10,7.0,South,5.8,-,N/A,,Clear,190,2013-01-16 22:35:00
4:55 PM,34.0,26.8,75,30.09,7.0,SSW,3.5,-,N/A,,Clear,200,2013-01-16 22:55:00
5:15 PM,33.1,28.4,83,30.10,10.0,South,4.6,-,N/A,,Clear,180,2013-01-16 23:15:00
5:35 PM,32.5,28.9,87,30.10,10.0,SSW,3.5,-,N/A,,Clear,210,2013-01-16 23:35:00
5:55 PM,32.9,28.2,83,30.11,10.0,SSW,3.5,-,N/A,,Clear,210,2013-01-16 23:55:00
6:15 PM,32.7,28.2,83,30.11,10.0,SSW,3.5,-,N/A,,Clear,210,2013-01-17 00:15:00
6:35 PM,32.4,27.9,83,30.12,10.0,South,4.6,-,N/A,,Clear,180,2013-01-17 00:35:00
6:55 PM,32.0,29.1,89,30.11,10.0,South,4.6,-,N/A,,Clear,170,2013-01-17 00:55:00
7:15 PM,32.0,29.5,90,30.12,10.0,South,5.8,-,N/A,,Clear,170,2013-01-17 01:15:00
7:35 PM,32.0,29.3,90,30.13,10.0,South,3.5,-,N/A,,Clear,170,2013-01-17 01:35:00
7:55 PM,32.0,29.3,90,30.13,10.0,South,3.5,-,N/A,,Clear,180,2013-01-17 01:55:00
8:15 PM,32.0,29.1,89,30.14,10.0,South,3.5,-,N/A,,Clear,190,2013-01-17 02:15:00
8:35 PM,32.0,28.6,87,30.13,10.0,Calm,Calm,-,N/A,,Clear,0,2013-01-17 02:35:00
8:55 PM,32.2,28.0,85,30.13,10.0,Calm,Calm,-,N/A,,Clear,0,2013-01-17 02:55:00
9:15 PM,32.0,28.2,86,30.13,10.0,WSW,3.5,-,N/A,,Clear,250,2013-01-17 03:15:00
9:35 PM,32.2,27.9,84,30.13,10.0,Calm,Calm,-,N/A,,Clear,0,2013-01-17 03:35:00
9:55 PM,32.2,28.0,85,30.13,10.0,Calm,Calm,-,N/A,,Clear,0,2013-01-17 03:55:00
10:15 PM,32.5,28.9,87,30.14,10.0,SSE,3.5,-,N/A,,Clear,150,2013-01-17 04:15:00
10:35 PM,32.0,29.3,90,30.13,10.0,SSE,4.6,-,N/A,,Clear,160,2013-01-17 04:35:00
10:55 PM,32.0,29.1,89,30.12,10.0,SSE,5.8,-,N/A,,Clear,150,2013-01-17 04:55:00
11:15 PM,32.0,29.3,90,30.13,10.0,Calm,Calm,-,N/A,,Clear,0,2013-01-17 05:15:00
11:35 PM,31.6,29.3,91,30.13,10.0,South,5.8,-,N/A,,Clear,190,2013-01-17 05:35:00
11:55 PM,31.6,29.7,92,30.13,10.0,SSW,3.5,-,N/A,,Clear,200,2013-01-17 05:55:00